When you browse on this site, cookies collect data to enhance your experience and personalize the content and advertising you see.
Visit our Privacy Policy to learn more. By continuing to use the site, you agree to this use of cookies and data.
  • In United Kingdom
  • List of Countries
  • For 7 days
  • Water Temperature
  • Weather Map
  • Weather Widgets
  • user-avatar
    Login

    Hourly Weather Mottola

    Today, 16 September, Monday

    Time Temperature Precipitation Wind Pressure Humidity
    00:00 +21°C° 0 mm 2 mps 742 mmHg 63%
    01:00 +21°C° 0 mm 2 mps 742 mmHg 65%
    02:00 +21°C° 0 mm 2 mps 741 mmHg 67%
    03:00 +21°C° 0 mm 2 mps 741 mmHg 68%
    04:00 +20°C° 0 mm 2 mps 740 mmHg 69%
    05:00 +21°C° 0 mm 2 mps 740 mmHg 68%
    06:00 +22°C° 0 mm 1 mps 740 mmHg 67%
    07:00 +23°C° 0 mm 1 mps 741 mmHg 66%
    08:00 +24°C° 0 mm 1 mps 741 mmHg 58%
    09:00 +26°C° 0 mm 2 mps 741 mmHg 51%
    10:00 +28°C° 0 mm 2 mps 741 mmHg 44%
    11:00 +28°C° 0 mm 2 mps 741 mmHg 42%
    12:00 +29°C° 0 mm 2 mps 740 mmHg 39%
    13:00 +30°C° 0 mm 3 mps 740 mmHg 37%
    14:00 +30°C° 0 mm 3 mps 740 mmHg 39%
    15:00 +29°C° 0 mm 3 mps 740 mmHg 41%
    16:00 +29°C° 0 mm 3 mps 739 mmHg 43%
    17:00 +27°C° 0 mm 2 mps 739 mmHg 49%
    18:00 +26°C° 0 mm 2 mps 739 mmHg 55%
    19:00 +24°C° 0 mm 1 mps 739 mmHg 61%
    20:00 +24°C° 0 mm 1 mps 739 mmHg 63%
    21:00 +24°C° 0 mm 1 mps 739 mmHg 64%
    22:00 +24°C° 0 mm 1 mps 739 mmHg 65%
    23:00 +23°C° 0 mm 1 mps 739 mmHg 65%

    Tomorrow, 17 September, Tuesday

    Time Temperature Precipitation Wind Pressure Humidity
    00:00 +23°C° 0 mm 1 mps 739 mmHg 66%
    01:00 +21°C° 0 mm 0 mps 739 mmHg 66%
    02:00 +20°C° 0 mm 0 mps 738 mmHg 66%
    03:00 +20°C° 0 mm 0 mps 738 mmHg 66%
    04:00 +20°C° 0 mm 0 mps 738 mmHg 66%
    05:00 +21°C° 0 mm 0 mps 738 mmHg 63%
    06:00 +21°C° 0 mm 0 mps 738 mmHg 60%
    07:00 +22°C° 0 mm 0 mps 738 mmHg 57%
    08:00 +25°C° 0 mm 1 mps 739 mmHg 52%
    09:00 +27°C° 0 mm 1 mps 739 mmHg 48%
    10:00 +29°C° 0 mm 1 mps 739 mmHg 43%
    11:00 +29°C° 0 mm 2 mps 739 mmHg 42%
    12:00 +30°C° 0 mm 2 mps 739 mmHg 41%
    13:00 +30°C° 0 mm 3 mps 739 mmHg 40%
    14:00 +30°C° 0 mm 3 mps 738 mmHg 42%
    15:00 +30°C° 0 mm 3 mps 738 mmHg 44%
    16:00 +29°C° 0 mm 4 mps 737 mmHg 46%
    17:00 +28°C° 0 mm 3 mps 737 mmHg 54%
    18:00 +26°C° 0 mm 3 mps 737 mmHg 61%
    19:00 +25°C° 0 mm 2 mps 737 mmHg 69%
    20:00 +25°C° 0 mm 2 mps 737 mmHg 70%
    21:00 +24°C° 0 mm 2 mps 737 mmHg 71%
    22:00 +24°C° 0 mm 2 mps 737 mmHg 72%
    23:00 +24°C° 0 mm 1 mps 737 mmHg 72%

    Day after tomorrow, 18 September, Wednesday

    Time Temperature Precipitation Wind Pressure Humidity
    00:00 +24°C° 0 mm 1 mps 737 mmHg 72%
    01:00 +23°C° 0 mm 1 mps 737 mmHg 72%
    02:00 +23°C° 0 mm 1 mps 737 mmHg 71%
    03:00 +23°C° 0 mm 1 mps 736 mmHg 71%
    04:00 +23°C° 0 mm 1 mps 736 mmHg 70%
    05:00 +23°C° 0 mm 1 mps 737 mmHg 67%
    06:00 +24°C° 0 mm 1 mps 737 mmHg 63%
    07:00 +25°C° 0 mm 1 mps 737 mmHg 60%
    08:00 +26°C° 0 mm 1 mps 737 mmHg 54%
    09:00 +28°C° 0 mm 1 mps 737 mmHg 48%
    10:00 +29°C° 0 mm 1 mps 738 mmHg 42%
    11:00 +30°C° 0 mm 2 mps 738 mmHg 41%
    12:00 +31°C° 0 mm 2 mps 738 mmHg 39%
    13:00 +31°C° 0 mm 3 mps 737 mmHg 37%
    14:00 +31°C° 0 mm 3 mps 737 mmHg 41%
    15:00 +30°C° 0 mm 3 mps 737 mmHg 44%
    16:00 +29°C° 0 mm 4 mps 737 mmHg 47%
    17:00 +28°C° 0.1 mm 3 mps 737 mmHg 54%
    18:00 +26°C° 0.1 mm 2 mps 737 mmHg 60%
    19:00 +25°C° 0.1 mm 2 mps 737 mmHg 66%
    20:00 +25°C° 0 mm 1 mps 737 mmHg 66%
    21:00 +24°C° 0 mm 1 mps 738 mmHg 65%
    22:00 +24°C° 0 mm 1 mps 738 mmHg 65%
    23:00 +24°C° 0 mm 1 mps 738 mmHg 64%

    19 September, Thursday

    Time Temperature Precipitation Wind Pressure Humidity
    00:00 +24°C° 0 mm 1 mps 738 mmHg 63%
    01:00 +23°C° 0 mm 1 mps 738 mmHg 62%
    02:00 +23°C° 0 mm 1 mps 738 mmHg 62%
    03:00 +21°C° 0 mm 0 mps 737 mmHg 63%
    04:00 +20°C° 0 mm 0 mps 737 mmHg 63%
    05:00 +23°C° 0 mm 1 mps 737 mmHg 63%
    06:00 +23°C° 0 mm 1 mps 737 mmHg 63%
    07:00 +24°C° 0 mm 1 mps 737 mmHg 64%
    08:00 +25°C° 0 mm 1 mps 738 mmHg 58%
    09:00 +26°C° 0 mm 1 mps 738 mmHg 53%
    10:00 +28°C° 0 mm 2 mps 739 mmHg 47%
    11:00 +28°C° 0.2 mm 2 mps 738 mmHg 47%
    12:00 +28°C° 0.2 mm 2 mps 738 mmHg 46%
    13:00 +29°C° 0.2 mm 3 mps 738 mmHg 46%
    14:00 +27°C° 0.8 mm 4 mps 738 mmHg 54%
    15:00 +25°C° 0.8 mm 4 mps 738 mmHg 62%
    16:00 +23°C° 0.8 mm 5 mps 737 mmHg 71%
    17:00 +22°C° 0.6 mm 5 mps 738 mmHg 73%
    18:00 +22°C° 0.6 mm 4 mps 738 mmHg 75%
    19:00 +21°C° 0.6 mm 4 mps 738 mmHg 77%
    20:00 +21°C° 0.2 mm 4 mps 738 mmHg 78%
    21:00 +21°C° 0.2 mm 4 mps 739 mmHg 79%
    22:00 +21°C° 0.2 mm 4 mps 739 mmHg 79%
    23:00 +21°C° 0.5 mm 4 mps 739 mmHg 80%

    20 September, Friday

    Time Temperature Precipitation Wind Pressure Humidity
    00:00 +20°C° 0.5 mm 5 mps 739 mmHg 80%
    01:00 +20°C° 0.5 mm 5 mps 739 mmHg 80%
    02:00 +20°C° 0 mm 5 mps 739 mmHg 79%
    03:00 +20°C° 0 mm 5 mps 739 mmHg 79%
    04:00 +19°C° 0 mm 6 mps 739 mmHg 78%
    05:00 +20°C° 0 mm 6 mps 739 mmHg 76%
    06:00 +20°C° 0 mm 6 mps 739 mmHg 73%
    07:00 +20°C° 0 mm 7 mps 739 mmHg 71%
    08:00 +21°C° 0 mm 6 mps 740 mmHg 66%
    09:00 +22°C° 0 mm 6 mps 740 mmHg 60%
    10:00 +23°C° 0 mm 6 mps 741 mmHg 55%
    11:00 +23°C° 0 mm 7 mps 741 mmHg 54%
    12:00 +23°C° 0 mm 7 mps 741 mmHg 52%
    13:00 +23°C° 0 mm 7 mps 741 mmHg 51%
    14:00 +23°C° 0 mm 7 mps 740 mmHg 50%
    15:00 +23°C° 0 mm 7 mps 740 mmHg 49%
    16:00 +22°C° 0 mm 7 mps 740 mmHg 49%
    17:00 +21°C° 0 mm 6 mps 740 mmHg 51%
    18:00 +21°C° 0 mm 6 mps 740 mmHg 53%
    19:00 +20°C° 0 mm 5 mps 741 mmHg 56%
    20:00 +19°C° 0 mm 5 mps 741 mmHg 58%
    21:00 +19°C° 0 mm 5 mps 741 mmHg 60%
    22:00 +19°C° 0 mm 5 mps 741 mmHg 63%
    23:00 +19°C° 0 mm 5 mps 741 mmHg 63%

    21 September, Saturday

    Time Temperature Precipitation Wind Pressure Humidity
    00:00 +18°C° 0 mm 4 mps 741 mmHg 64%
    01:00 +18°C° 0 mm 4 mps 741 mmHg 64%
    02:00 +18°C° 0 mm 4 mps 741 mmHg 64%
    03:00 +17°C° 0 mm 4 mps 741 mmHg 64%
    04:00 +17°C° 0 mm 4 mps 741 mmHg 65%
    05:00 +17°C° 0 mm 4 mps 741 mmHg 63%
    06:00 +18°C° 0 mm 4 mps 742 mmHg 61%
    07:00 +18°C° 0 mm 4 mps 742 mmHg 59%
    08:00 +20°C° 0 mm 4 mps 742 mmHg 54%
    09:00 +21°C° 0 mm 4 mps 743 mmHg 49%
    10:00 +24°C° 0 mm 3 mps 744 mmHg 44%
    11:00 +24°C° 0 mm 3 mps 743 mmHg 41%
    12:00 +25°C° 0 mm 3 mps 743 mmHg 39%
    13:00 +26°C° 0 mm 3 mps 743 mmHg 36%
    14:00 +26°C° 0 mm 3 mps 743 mmHg 37%
    15:00 +25°C° 0 mm 3 mps 743 mmHg 38%
    16:00 +25°C° 0 mm 3 mps 743 mmHg 39%
    17:00 +24°C° 0 mm 3 mps 743 mmHg 45%
    18:00 +21°C° 0 mm 3 mps 742 mmHg 51%
    19:00 +20°C° 0 mm 2 mps 742 mmHg 57%
    20:00 +19°C° 0 mm 2 mps 743 mmHg 58%
    21:00 +19°C° 0 mm 2 mps 743 mmHg 59%
    22:00 +20°C° 0 mm 1 mps 743 mmHg 60%
    23:00 +19°C° 0 mm 1 mps 743 mmHg 61%
    Show more